QPF
0.00 0.00 0.00 0.00 0.00 0.00 0.00 0.00 0.00 0.00 0.00 0.00 0.00 0.00 0.00 0.00 0.00 0.00 0.01 0.13 0.19 0.00 0.02 0.01 0.00 0.01 0.04 0.11 0.08 0.03 0.01 0.00 0.03 0.05 0.03 0.03 0.15 0.16 0.07 0.16 0.05 0.04 0.00 0.03
0.00 0.00 0.00 0.00 0.00 0.00 0.00 0.00 0.00 0.00 0.00 0.00 0.00 0.00 0.00 0.00 0.00 0.00 0.00 0.01 0.06 0.04 0.02 0.00 0.00 0.00 0.01 0.03 0.06 0.07 0.05 0.01 0.02 0.05 0.01 0.14 0.21 0.29 0.17 0.16 0.02 0.00 0.00 0.00
0.00 0.00 0.00 0.00 0.00 0.00 0.00 0.00 0.00 0.00 0.00 0.00 0.00 0.00 0.00 0.00 0.00 0.00 0.00 0.01 0.05 0.04 0.00 0.00 0.00 0.00 0.00 0.00 0.01 0.03 0.05 0.01 0.00 0.01 0.01 0.04 0.14 0.27 0.31 0.09 0.00 0.00 0.00 0.00
0.00 0.00 0.00 0.00 0.00 0.00 0.02 0.01 0.00 0.00 0.00 0.00 0.00 0.00 0.00 0.00 0.00 0.00 0.00 0.00 0.04 0.16 0.00 0.00 0.00 0.00 0.00 0.00 0.00 0.00 0.01 0.00 0.00 0.00 0.00 0.02 0.06 0.13 0.07 0.00 0.00 0.00 0.00 0.03
0.00 0.00 0.00 0.00 0.00 0.00 0.01 0.00 0.00 0.00 0.00 0.00 0.00 0.00 0.00 0.00 0.00 0.01 0.00 0.00 0.04 0.39 0.13 0.01 0.00 0.00 0.00 0.00 0.00 0.00 0.00 0.00 0.00 0.00 0.00 0.00 0.01 0.03 0.04 0.04 0.05 0.01 0.00 0.06
0.00 0.00 0.00 0.00 0.00 0.00 0.00 0.01 0.00 0.00 0.00 0.00 0.00 0.00 0.00 0.00 0.00 0.00 0.00 0.01 0.03 0.30 0.11 0.01 0.00 0.00 0.00 0.00 0.00 0.00 0.00 0.00 0.00 0.00 0.00 0.00 0.00 0.00 0.03 0.01 0.01 0.00 0.00 0.02
0.00 0.00 0.00 0.00 0.00 0.00 0.00 0.00 0.00 0.00 0.00 0.00 0.00 0.00 0.00 0.00 0.00 0.00 0.00 0.00 0.01 0.00 0.01 0.00 0.00 0.00 0.00 0.00 0.00 0.00 0.00 0.00 0.00 0.00 0.00 0.00 0.00 0.00 0.01 0.01 0.00 0.00 0.00 0.00
0.00 0.00 0.00 0.00 0.00 0.00 0.00 0.00 0.00 0.00 0.00 0.00 0.00 0.00 0.00 0.00 0.00 0.00 0.00 0.00 0.01 0.00 0.00 0.00 0.00 0.00 0.00 0.00 0.00 0.00 0.00 0.00 0.00 0.00 0.00 0.00 0.00 0.00 0.00 0.00 0.00 0.00 0.00 0.00
0.00 0.00 0.00 0.00 0.00 0.00 0.00 0.00 0.00 0.00 0.00 0.00 0.00 0.00 0.00 0.00 0.00 0.00 0.00 0.00 0.01 0.00 0.00 0.00 0.00 0.00 0.00 0.00 0.00 0.00 0.00 0.00 0.00 0.00 0.00 0.00 0.00 0.00 0.00 0.00 0.00 0.00 0.00 0.00
0.00 0.00 0.00 0.00 0.00 0.00 0.00 0.00 0.00 0.00 0.00 0.00 0.00 0.00 0.00 0.01 0.00 0.00 0.00 0.00 0.00 0.00 0.01 0.00 0.00 0.00 0.00 0.00 0.00 0.00 0.00 0.00 0.00 0.00 0.00 0.00 0.00 0.00 0.00 0.00 0.00 0.00 0.00 0.00
0.00 0.00 0.00 0.00 0.00 0.00 0.00 0.00 0.00 0.00 0.00 0.00 0.00 0.00 0.00 0.01 0.01 0.01 0.00 0.00 0.00 0.00 0.00 0.00 0.00 0.00 0.00 0.00 0.00 0.00 0.00 0.00 0.00 0.00 0.00 0.00 0.00 0.00 0.00 0.00 0.00 0.00 0.00 0.00
0.00 0.00 0.00 0.00 0.00 0.00 0.00 0.00 0.00 0.00 0.00 0.00 0.00 0.00 0.00 0.01 0.00 0.00 0.00 0.00 0.00 0.01 0.00 0.00 0.00 0.00 0.00 0.00 0.00 0.00 0.01 0.00 0.00 0.00 0.00 0.00 0.00 0.00 0.00 0.00 0.00 0.00 0.00 0.00
0.00 0.00 0.00 0.00 0.00 0.00 0.00 0.00 0.00 0.00 0.00 0.00 0.00 0.00 0.00 0.00 0.00 0.01 0.06 0.01 0.03 0.10 0.00 0.00 0.00 0.00 0.00 0.00 0.00 0.00 0.01 0.03 0.03 0.00 0.00 0.00 0.00 0.00 0.00 0.01 0.01 0.00 0.00 0.01
0.00 0.00 0.00 0.00 0.00 0.00 0.00 0.00 0.00 0.00 0.00 0.00 0.00 0.00 0.00 0.00 0.00 0.01 0.02 0.01 0.01 0.19 0.03 0.00 0.00 0.00 0.00 0.00 0.00 0.04 0.04 0.05 0.02 0.00 0.00 0.00 0.00 0.00 0.00 0.01 0.01 0.00 0.00 0.00
0.00 0.00 0.00 0.00 0.00 0.00 0.00 0.00 0.00 0.00 0.00 0.00 0.00 0.00 0.00 0.00 0.00 0.00 0.02 0.03 0.04 0.00 0.00 0.00 0.00 0.00 0.00 0.00 0.01 0.03 0.01 0.00 0.01 0.00 0.00 0.00 0.00 0.00 0.02 0.01 0.01 0.02 0.03 0.00
0.00 0.00 0.00 0.00 0.00 0.00 0.00 0.00 0.00 0.00 0.00 0.00 0.00 0.00 0.00 0.00 0.00 0.00 0.00 0.00 0.01 0.00 0.00 0.00 0.00 0.00 0.00 0.00 0.00 0.01 0.02 0.02 0.00 0.01 0.01 0.01 0.01 0.11 0.07 0.06 0.05 0.03 0.00 0.00
0.00 0.00 0.00 0.00 0.00 0.00 0.00 0.00 0.00 0.00 0.00 0.00 0.00 0.00 0.00 0.00 0.06 0.01 0.00 0.00 0.00 0.00 0.00 0.00 0.00 0.00 0.00 0.00 0.00 0.02 0.09 0.03 0.08 0.05 0.02 0.04 0.12 0.14 0.06 0.02 0.01 0.00 0.00 0.00
0.00 0.00 0.00 0.00 0.00 0.01 0.00 0.00 0.00 0.00 0.00 0.00 0.00 0.00 0.00 0.01 0.04 0.00 0.00 0.00 0.00 0.00 0.00 0.00 0.00 0.00 0.00 0.11 0.09 0.08 0.09 0.03 0.05 0.02 0.03 0.07 0.11 0.18 0.22 0.06 0.02 0.00 0.00 0.00
0.00 0.00 0.00 0.00 0.01 0.02 0.00 0.00 0.00 0.00 0.00 0.00 0.00 0.00 0.01 0.01 0.01 0.02 0.00 0.00 0.00 0.00 0.00 0.00 0.01 0.00 0.07 0.28 0.63 0.34 0.21 0.22 0.16 0.05 0.06 0.15 0.29 0.21 0.06 0.00 0.00 0.00 0.00 0.00
0.00 0.00 0.00 0.00 0.00 0.00 0.00 0.00 0.00 0.00 0.00 0.00 0.00 0.00 0.00 0.01 0.09 0.26 0.06 0.00 0.00 0.00 0.03 0.05 0.04 0.02 0.05 0.11 0.23 0.32 0.21 0.06 0.02 0.03 0.05 0.09 0.04 0.01 0.00 0.00 0.00 0.00 0.00 0.00
0.00 0.00 0.00 0.00 0.00 0.00 0.00 0.00 0.00 0.00 0.01 0.01 0.00 0.00 0.00 0.00 0.01 0.07 0.05 0.01 0.01 0.03 0.03 0.01 0.00 0.02 0.03 0.08 0.15 0.13 0.04 0.01 0.00 0.00 0.01 0.00 0.00 0.00 0.00 0.00 0.00 0.00 0.00 0.00
0.00 0.00 0.00 0.00 0.00 0.00 0.00 0.01 0.01 0.01 0.07 0.05 0.00 0.00 0.00 0.00 0.00 0.00 0.00 0.00 0.00 0.00 0.00 0.00 0.03 0.25 0.22 0.10 0.03 0.02 0.01 0.00 0.00 0.00 0.00 0.00 0.00 0.00 0.00 0.00 0.00 0.00 0.00 0.00
0.02 0.00 0.00 0.00 0.00 0.00 0.00 0.03 0.08 0.06 0.12 0.16 0.03 0.00 0.00 0.00 0.00 0.00 0.00 0.00 0.00 0.00 0.00 0.04 0.11 0.08 0.03 0.00 0.00 0.00 0.00 0.00 0.00 0.00 0.00 0.00 0.00 0.00 0.00 0.00 0.00 0.00 0.00 0.00
0.09 0.01 0.00 0.00 0.01 0.00 0.00 0.02 0.10 0.23 0.28 0.03 0.03 0.00 0.00 0.00 0.00 0.00 0.00 0.00 0.00 0.00 0.00 0.00 0.01 0.01 0.01 0.00 0.00 0.00 0.00 0.00 0.00 0.00 0.00 0.00 0.00 0.00 0.00 0.00 0.00 0.00 0.00 0.00
0.19 0.07 0.00 0.00 0.00 0.00 0.00 0.00 0.00 0.00 0.01 0.01 0.00 0.00 0.00 0.00 0.00 0.00 0.00 0.00 0.00 0.00 0.00 0.00 0.00 0.00 0.00 0.00 0.00 0.00 0.00 0.00 0.00 0.00 0.00 0.00 0.00 0.00 0.00 0.00 0.00 0.00 0.00 0.00
0.06 0.06 0.01 0.08 0.19 0.04 0.00 0.01 0.02 0.02 0.03 0.01 0.01 0.00 0.00 0.00 0.00 0.00 0.00 0.00 0.00 0.00 0.00 0.00 0.00 0.00 0.00 0.00 0.00 0.00 0.00 0.00 0.00 0.00 0.00 0.00 0.00 0.00 0.00 0.00 0.00 0.00 0.00 0.00
MSLP
1003.19 1003.64 1003.50 1003.15 1002.54 1002.40 1002.11 1002.46 1001.49 1000.93 1000.92 1000.72 1002.04 1002.70 1003.33 1005.09 1006.88 1008.05 1007.84 1006.97 1006.41 1007.24 1007.57 1008.24 1008.03 1009.06 1009.83 1010.77 1011.17 1011.51 1012.02 1012.64 1013.19 1013.66 1013.81 1013.72 1013.85 1013.38 1013.46 1013.48 1013.84 1014.67 1014.23 1014.26
1003.48 1003.22 1003.04 1002.43 1002.10 1002.23 1001.93 1002.06 1001.85 1001.50 1000.92 1000.79 1001.36 1002.24 1002.85 1004.47 1005.72 1005.83 1006.40 1007.35 1007.13 1006.75 1007.51 1007.93 1007.90 1008.62 1009.59 1010.15 1010.66 1011.63 1012.10 1012.32 1012.72 1012.98 1013.17 1013.34 1013.45 1013.61 1013.92 1013.62 1013.40 1013.64 1013.45 1013.27
1003.24 1002.77 1002.28 1001.99 1001.63 1001.68 1001.72 1001.37 1001.38 1001.34 1001.04 1000.85 1001.52 1002.67 1003.69 1004.02 1005.77 1006.81 1007.32 1007.67 1006.39 1006.39 1006.96 1007.40 1007.39 1008.24 1009.34 1010.12 1010.46 1011.24 1011.81 1011.96 1012.13 1012.39 1012.62 1013.08 1013.24 1014.12 1014.23 1013.98 1013.68 1013.35 1012.89 1013.08
1002.82 1002.00 1001.64 1001.35 1001.14 1001.00 1001.54 1001.37 1001.79 1001.16 1001.55 1001.87 1001.92 1003.71 1003.83 1004.16 1004.56 1005.75 1005.83 1007.10 1008.22 1007.57 1007.48 1007.52 1007.12 1007.90 1008.88 1009.55 1010.04 1010.64 1011.33 1011.68 1011.92 1012.28 1012.64 1013.06 1013.44 1013.98 1013.98 1013.72 1013.55 1013.33 1012.99 1013.24
1002.16 1001.47 1000.97 1000.73 1000.50 1000.56 1001.53 1001.46 1001.90 1001.63 1002.13 1002.69 1002.83 1003.67 1004.51 1004.27 1003.94 1003.80 1003.59 1005.87 1007.30 1008.58 1009.27 1007.31 1006.75 1007.29 1007.87 1008.64 1009.37 1009.96 1010.62 1011.27 1011.65 1012.14 1012.52 1012.93 1013.22 1013.52 1013.63 1013.50 1013.56 1013.49 1013.01 1013.04
1001.54 1000.68 1000.32 999.95 999.69 999.89 1000.23 1001.70 1002.12 1002.16 1003.16 1004.29 1004.86 1004.30 1005.06 1004.44 1003.33 1003.28 1002.84 1003.87 1007.23 1008.56 1007.38 1006.43 1006.48 1007.06 1007.52 1008.09 1008.87 1009.73 1010.53 1011.13 1011.51 1011.96 1012.31 1012.78 1013.13 1013.41 1013.59 1013.52 1013.60 1013.36 1013.26 1013.42
1001.64 1000.51 999.80 999.40 999.40 999.45 1000.19 1002.33 1002.86 1004.93 1005.22 1005.87 1005.30 1005.05 1004.08 1003.24 1002.70 1002.36 1002.28 1002.53 1003.68 1005.10 1004.91 1005.39 1006.29 1006.89 1007.41 1008.14 1008.95 1009.75 1010.45 1011.17 1011.50 1011.89 1012.24 1012.58 1012.86 1013.01 1013.32 1013.62 1013.75 1013.71 1013.95 1013.98
1001.59 1000.68 999.51 999.01 999.03 999.43 1000.00 1000.99 1002.55 1004.41 1006.15 1006.11 1005.15 1005.18 1003.56 1002.29 1001.45 1001.75 1001.58 1001.78 1002.59 1003.48 1004.06 1004.88 1005.67 1006.39 1007.36 1008.32 1009.15 1009.78 1010.49 1011.11 1011.55 1011.85 1012.18 1012.45 1012.77 1013.05 1013.28 1013.42 1013.65 1013.89 1013.98 1013.99
1001.14 1000.28 999.14 998.74 998.66 999.03 999.75 1000.62 1001.38 1004.01 1005.49 1005.80 1005.78 1004.87 1003.57 1001.80 1001.75 1001.09 1001.18 1001.54 1002.49 1003.26 1004.03 1004.84 1005.64 1006.43 1007.29 1008.24 1009.28 1010.03 1010.66 1011.12 1011.46 1011.79 1012.13 1012.52 1012.63 1012.93 1013.26 1013.45 1013.63 1013.73 1013.87 1013.89
1000.29 1000.67 999.17 998.42 998.20 998.40 999.20 1000.18 1001.31 1003.06 1005.66 1005.98 1005.29 1004.76 1004.06 1003.46 1003.08 1001.34 1001.59 1001.92 1002.60 1003.33 1004.11 1004.89 1005.51 1006.32 1007.11 1007.96 1009.09 1009.90 1010.43 1010.84 1011.16 1011.52 1011.92 1012.32 1012.57 1012.79 1012.94 1013.27 1013.53 1013.67 1013.64 1013.74
999.93 1000.54 999.14 998.78 998.29 998.64 999.22 999.99 1001.18 1002.86 1004.43 1004.87 1005.50 1005.62 1004.34 1004.36 1002.95 1002.64 1001.52 1001.88 1002.69 1003.30 1004.05 1004.71 1005.63 1006.38 1006.85 1007.61 1008.74 1009.61 1010.14 1010.54 1011.17 1011.47 1011.95 1012.40 1012.79 1012.93 1012.99 1013.14 1013.35 1013.59 1013.59 1013.66
999.10 999.71 999.72 998.92 998.00 997.71 998.39 999.33 1000.45 1002.49 1003.03 1003.00 1004.09 1005.34 1003.98 1004.28 1004.07 1002.73 1003.19 1002.17 1002.26 1002.50 1003.82 1004.70 1005.54 1006.61 1007.26 1007.81 1008.45 1009.12 1009.76 1010.43 1011.13 1011.69 1012.10 1012.51 1012.76 1012.90 1013.03 1013.27 1013.53 1013.73 1013.85 1013.82
998.82 999.59 1000.06 999.63 998.84 997.56 998.10 998.73 999.36 1000.19 1000.98 1002.25 1003.70 1004.92 1004.89 1003.74 1003.36 1003.39 1003.68 1004.60 1004.29 1004.63 1005.45 1005.26 1005.78 1006.61 1007.49 1007.91 1008.46 1009.16 1009.97 1010.59 1011.34 1011.70 1012.34 1012.82 1012.79 1013.20 1013.42 1013.69 1013.98 1014.03 1014.02 1014.06
998.48 999.61 1000.16 1000.34 999.90 999.53 998.97 998.90 999.03 999.56 1000.64 1002.19 1002.89 1003.70 1003.61 1003.28 1003.24 1004.36 1005.39 1005.29 1003.35 1003.63 1006.01 1005.32 1005.62 1006.56 1007.40 1008.07 1008.92 1009.57 1010.44 1011.02 1011.47 1011.95 1012.51 1012.92 1013.19 1013.44 1013.77 1013.96 1014.26 1014.27 1014.30 1014.32
998.73 1000.00 1000.34 1000.37 999.93 999.78 999.63 998.88 999.15 999.42 999.84 1001.22 1002.99 1003.62 1003.27 1003.15 1003.48 1002.85 1002.26 1004.86 1004.52 1003.89 1005.71 1004.52 1004.87 1006.34 1007.33 1008.00 1008.76 1009.63 1010.14 1010.78 1011.24 1011.85 1012.52 1012.91 1012.88 1013.11 1013.54 1013.96 1014.36 1014.57 1014.59 1014.50
999.03 1000.17 1000.66 1000.99 1000.26 999.59 999.54 998.88 998.99 998.39 998.62 1000.11 1001.73 1003.74 1003.96 1003.73 1002.67 1002.29 1002.61 1002.74 1003.29 1003.70 1004.49 1004.79 1005.06 1006.18 1007.15 1007.70 1008.21 1009.01 1009.82 1010.39 1010.87 1011.48 1012.22 1012.72 1013.03 1013.53 1013.84 1014.29 1014.53 1014.59 1014.78 1014.76
1001.10 1000.56 1001.25 1001.47 1000.74 999.88 999.27 998.42 997.97 997.59 997.91 999.26 1001.31 1003.05 1003.50 1003.16 1002.12 1001.92 1002.11 1003.39 1003.76 1004.03 1004.30 1004.74 1005.30 1005.91 1006.68 1007.75 1008.56 1009.82 1010.91 1011.24 1011.23 1011.65 1012.41 1012.86 1013.50 1014.17 1014.34 1014.21 1014.54 1014.82 1015.04 1015.10
1001.51 1001.24 1001.23 1002.02 1001.45 1000.68 999.00 997.43 997.74 998.51 997.16 998.06 999.80 1001.71 1002.17 1002.41 1001.85 1001.64 1002.56 1003.40 1004.21 1003.81 1004.34 1004.97 1005.42 1005.69 1006.93 1007.70 1008.71 1009.70 1010.58 1011.17 1012.05 1012.05 1012.66 1013.07 1013.95 1014.61 1014.96 1014.75 1015.13 1015.16 1015.16 1015.41
1000.66 1000.68 1001.38 1002.20 1002.65 1001.61 999.44 999.02 998.33 996.95 997.37 997.53 999.62 1001.26 1002.29 1002.98 1003.99 1004.41 1003.41 1003.35 1004.27 1003.84 1004.45 1005.28 1005.95 1006.15 1007.49 1008.25 1010.44 1010.99 1011.41 1011.59 1012.78 1012.90 1013.03 1013.25 1013.38 1014.43 1015.21 1015.50 1015.69 1015.61 1015.45 1015.37
1001.58 1001.18 1001.20 1001.89 1002.60 1002.24 999.86 999.22 997.95 997.28 998.38 997.69 998.88 1000.76 1002.43 1003.90 1006.05 1006.36 1005.70 1004.66 1004.28 1004.81 1005.39 1006.21 1006.90 1007.39 1008.52 1009.68 1010.41 1011.16 1011.76 1012.59 1012.76 1012.68 1013.28 1013.70 1013.78 1014.06 1015.44 1015.63 1015.72 1015.67 1015.17 1015.56
1005.19 1002.16 1001.54 1001.72 1001.92 1001.63 1001.55 1001.08 998.90 1000.02 1001.94 1000.32 999.50 1000.69 1002.45 1003.50 1004.04 1005.62 1005.75 1005.36 1005.47 1005.95 1006.55 1007.19 1008.02 1008.76 1009.27 1009.92 1010.63 1011.63 1012.29 1012.51 1012.59 1013.11 1013.56 1013.99 1014.33 1014.72 1015.29 1015.56 1015.71 1015.58 1015.79 1015.89
1007.15 1005.38 1002.80 1001.77 1001.85 1002.43 1001.70 1001.53 1002.66 1003.48 1003.34 1002.07 1000.12 1000.71 1002.41 1003.26 1004.46 1005.40 1005.47 1005.63 1006.43 1007.14 1007.82 1008.35 1008.93 1009.55 1010.11 1010.45 1010.70 1011.78 1012.46 1012.86 1013.13 1013.59 1014.16 1014.64 1014.65 1014.89 1015.38 1015.62 1015.98 1015.92 1016.17 1016.46
1007.85 1006.93 1006.25 1004.61 1003.03 1002.91 1002.76 1002.53 1002.87 1002.71 1003.02 1003.05 1001.38 1001.09 1002.25 1003.83 1004.78 1005.50 1006.44 1006.89 1007.58 1008.14 1008.59 1009.08 1009.49 1010.14 1010.75 1010.68 1011.27 1012.28 1012.91 1013.16 1013.57 1014.09 1014.40 1014.79 1014.98 1015.12 1015.28 1015.62 1016.09 1016.26 1016.54 1016.87
1007.47 1006.75 1006.14 1005.88 1005.28 1004.77 1004.10 1003.75 1001.70 999.63 1001.83 1003.27 1002.96 1001.57 1002.54 1004.56 1005.52 1006.05 1006.76 1007.54 1007.88 1008.43 1008.93 1009.31 1010.18 1010.91 1011.58 1012.08 1012.14 1012.45 1013.02 1013.30 1013.73 1014.14 1014.56 1014.91 1015.02 1015.21 1015.37 1015.43 1015.81 1016.43 1016.96 1017.47
1008.46 1007.59 1006.13 1006.13 1005.78 1003.83 1004.66 1004.87 1002.51 1001.40 1001.19 1002.47 1002.18 1001.94 1003.09 1004.33 1004.93 1005.57 1006.84 1007.35 1007.77 1008.67 1009.44 1010.06 1010.53 1011.15 1011.81 1012.31 1012.86 1013.12 1013.27 1013.56 1013.99 1014.38 1014.72 1015.00 1015.15 1015.31 1015.54 1015.87 1016.34 1016.73 1016.98 1017.06
1008.79 1007.42 1006.77 1006.69 1006.64 1005.84 1004.73 1003.58 1002.97 1002.71 1002.02 1001.03 1001.45 1002.22 1003.09 1004.00 1004.85 1005.71 1006.33 1006.70 1007.76 1008.73 1009.58 1010.55 1011.29 1011.90 1012.35 1012.76 1013.09 1013.44 1013.45 1013.69 1014.11 1014.63 1014.93 1015.07 1015.35 1015.49 1015.71 1016.21 1016.52 1016.59 1016.74 1017.02
Thickness
5835 5809 5797 5818 5839 5842 5843 5829 5832 5849 5866 5866 5842 5841 5844 5841 5828 5819 5822 5835 5841 5837 5836 5833 5832 5825 5815 5809 5806 5805 5800 5794 5787 5783 5780 5780 5779 5786 5786 5785 5781 5766 5772 5771
5815 5802 5830 5847 5847 5841 5841 5826 5823 5848 5866 5864 5858 5851 5858 5846 5834 5838 5838 5831 5835 5840 5830 5829 5832 5828 5817 5812 5812 5805 5801 5798 5795 5792 5790 5788 5784 5784 5780 5780 5782 5778 5778 5779
5802 5821 5847 5842 5838 5835 5835 5830 5835 5835 5859 5871 5859 5838 5840 5853 5836 5832 5834 5832 5843 5843 5834 5830 5836 5832 5823 5816 5814 5809 5804 5802 5801 5800 5796 5790 5786 5775 5772 5776 5777 5778 5780 5774
5812 5840 5837 5836 5833 5844 5815 5849 5846 5854 5838 5806 5854 5781 5834 5838 5843 5832 5838 5827 5822 5837 5832 5833 5838 5836 5826 5822 5821 5814 5810 5808 5805 5801 5793 5788 5782 5776 5777 5777 5778 5778 5778 5775
5808 5823 5826 5825 5839 5849 5822 5854 5842 5852 5837 5834 5835 5802 5808 5832 5841 5849 5860 5835 5820 5797 5802 5834 5846 5843 5838 5835 5828 5824 5818 5811 5806 5801 5796 5790 5786 5783 5781 5781 5778 5779 5781 5777
5822 5851 5843 5842 5860 5864 5869 5843 5841 5844 5828 5776 5799 5805 5791 5810 5830 5844 5862 5851 5819 5796 5812 5845 5851 5848 5843 5839 5831 5823 5816 5811 5808 5804 5800 5793 5788 5784 5780 5780 5778 5779 5780 5776
5809 5825 5848 5859 5839 5857 5854 5804 5777 5752 5760 5758 5798 5792 5803 5837 5847 5856 5861 5863 5855 5842 5850 5851 5843 5840 5839 5833 5828 5823 5816 5808 5807 5803 5799 5795 5790 5787 5783 5780 5776 5774 5772 5770
5776 5775 5829 5854 5841 5832 5835 5827 5781 5761 5748 5762 5808 5778 5804 5855 5867 5864 5868 5873 5869 5858 5858 5852 5846 5840 5835 5830 5824 5821 5813 5806 5803 5800 5796 5794 5791 5787 5782 5780 5776 5772 5769 5768
5779 5790 5847 5855 5859 5853 5830 5811 5845 5791 5790 5773 5783 5802 5826 5852 5851 5871 5870 5870 5857 5857 5854 5850 5844 5840 5833 5828 5821 5816 5810 5805 5802 5798 5794 5790 5789 5785 5780 5778 5776 5773 5771 5770
5810 5774 5832 5852 5863 5860 5841 5849 5799 5797 5746 5753 5783 5787 5786 5815 5824 5860 5859 5859 5858 5856 5851 5849 5845 5840 5837 5832 5823 5817 5812 5806 5803 5799 5794 5789 5785 5782 5780 5776 5773 5771 5771 5769
5822 5797 5815 5840 5830 5822 5825 5815 5824 5814 5785 5761 5753 5761 5822 5811 5836 5837 5850 5860 5857 5854 5848 5848 5844 5842 5839 5834 5826 5819 5814 5809 5801 5798 5790 5784 5778 5775 5772 5769 5769 5768 5770 5767
5828 5808 5783 5807 5853 5866 5849 5831 5829 5777 5785 5801 5786 5761 5836 5830 5834 5848 5844 5855 5864 5861 5849 5849 5845 5837 5834 5830 5826 5821 5815 5807 5800 5792 5785 5779 5774 5771 5767 5765 5765 5765 5763 5763
5827 5793 5767 5787 5819 5852 5839 5844 5843 5836 5834 5809 5780 5776 5821 5838 5839 5840 5834 5829 5819 5816 5831 5841 5839 5831 5827 5826 5822 5816 5809 5801 5793 5786 5778 5772 5771 5767 5762 5760 5758 5758 5757 5755
5834 5803 5785 5762 5792 5809 5812 5824 5835 5835 5811 5802 5801 5805 5823 5838 5845 5825 5809 5815 5836 5840 5822 5833 5836 5830 5825 5821 5814 5807 5800 5792 5787 5781 5774 5768 5764 5761 5755 5753 5751 5750 5749 5747
5820 5783 5796 5804 5810 5813 5814 5824 5824 5822 5834 5800 5795 5801 5818 5828 5828 5845 5853 5816 5814 5824 5815 5822 5833 5825 5821 5816 5810 5802 5798 5790 5787 5780 5771 5766 5766 5762 5755 5750 5745 5741 5740 5740
5819 5778 5796 5788 5811 5815 5803 5823 5826 5839 5843 5814 5811 5795 5813 5821 5837 5848 5840 5842 5828 5832 5831 5825 5831 5825 5818 5813 5810 5803 5796 5791 5789 5781 5771 5766 5760 5752 5749 5743 5740 5737 5734 5733
5782 5784 5774 5758 5798 5803 5784 5814 5830 5843 5840 5823 5794 5800 5814 5817 5839 5844 5845 5832 5833 5834 5833 5831 5827 5824 5819 5808 5802 5788 5783 5782 5779 5772 5765 5756 5747 5740 5736 5737 5732 5729 5726 5725
5781 5777 5775 5759 5774 5745 5809 5847 5840 5825 5853 5850 5832 5818 5820 5827 5843 5850 5845 5830 5831 5837 5832 5828 5825 5825 5812 5805 5792 5787 5782 5777 5768 5764 5754 5746 5733 5723 5720 5722 5717 5717 5717 5714
5802 5789 5767 5741 5741 5767 5803 5814 5825 5831 5837 5855 5826 5818 5820 5819 5813 5803 5832 5833 5828 5836 5830 5823 5820 5820 5802 5793 5768 5765 5765 5761 5755 5751 5745 5741 5735 5720 5715 5710 5704 5705 5706 5706
5791 5798 5783 5769 5741 5737 5800 5825 5844 5856 5802 5846 5837 5818 5808 5798 5754 5759 5799 5817 5826 5824 5816 5811 5807 5804 5787 5779 5770 5763 5758 5751 5747 5747 5739 5734 5729 5722 5709 5704 5700 5698 5704 5698
5731 5763 5771 5774 5764 5783 5792 5800 5839 5791 5776 5821 5836 5826 5809 5796 5797 5791 5800 5805 5813 5809 5803 5800 5791 5783 5779 5772 5762 5750 5745 5743 5743 5738 5732 5724 5717 5712 5704 5699 5694 5695 5691 5688
5712 5728 5759 5775 5766 5752 5800 5805 5776 5779 5784 5808 5826 5823 5813 5809 5805 5797 5799 5802 5796 5791 5786 5783 5776 5769 5766 5762 5757 5746 5738 5735 5732 5725 5717 5710 5708 5703 5696 5692 5688 5685 5682 5676
5721 5726 5722 5742 5760 5782 5790 5791 5795 5799 5787 5751 5811 5822 5817 5807 5801 5798 5790 5787 5782 5778 5774 5772 5765 5761 5753 5753 5746 5733 5727 5725 5719 5713 5708 5703 5699 5695 5691 5686 5679 5674 5670 5664
5723 5729 5732 5729 5745 5760 5772 5783 5805 5820 5800 5800 5799 5809 5813 5799 5793 5790 5786 5779 5776 5774 5769 5765 5753 5745 5737 5732 5732 5728 5721 5716 5711 5704 5700 5696 5693 5688 5684 5681 5675 5666 5657 5649
5709 5714 5734 5736 5740 5770 5765 5764 5786 5803 5806 5797 5807 5816 5807 5796 5793 5791 5780 5776 5775 5768 5760 5753 5746 5737 5729 5725 5717 5716 5712 5707 5702 5696 5692 5688 5685 5681 5676 5670 5661 5656 5649 5645
5696 5708 5716 5719 5730 5742 5757 5774 5783 5776 5786 5809 5808 5809 5804 5796 5787 5783 5776 5774 5766 5758 5751 5741 5733 5726 5720 5714 5709 5705 5703 5700 5695 5688 5682 5679 5673 5669 5666 5657 5652 5649 5643 5635